Location: Auckland
(36.8670°S, 174.7670°E)
Time: 13:08:30
(UTC+13:00)

ISS - Pass Details

Date: 02 February 2019
Orbit: 403 x 411 km, 51.6° (Epoch: 19 February)

Event Time Altitude Azimuth Distance (km) Brightness Sun altitude
Exits shadow 06:04:10 - 251° (WSW) 2,281 -0.4 -6.8°
Reaches altitude 10° 06:07:44 10° 209° (SSW) 1,498 -1.0 -6.1°
Maximum altitude 06:08:21 10° 198° (SSW) 1,476 -0.9 -6.0°
Drops below altitude 10° 06:09:02 10° 186° (S) 1,503 -0.7 -5.9°
Sets 06:12:47 0° 143° (SE) 2,362 1.3 -5.2°
